Location: Mohawk View
(42.7837°N, 73.7885°W)
Time: 08:27:50
(UTC+00:00)

Meteor 2-10 Rocket - Pass Details

Date: 17 June 2021
Orbit: 733 x 885 km, 81.2° (Epoch: 27 July)

Event Time Altitude Azimuth Distance (km) Brightness Sun altitude
Rises 04:14:08 0° 342° (NNW) 3,222 8.2 -23.1°
Reaches altitude 10° 04:16:36 10° 336° (NNW) 2,276 7.0 -23.2°
Maximum altitude 04:21:20 41° 267° (W) 1,069 4.2 -23.3°
Enters shadow 04:22:19 37° 239° (WSW) 1,144 4.2 -23.4°
